Weather History for La Ceiba, Honduras

Change the Weather History Date:

Friday, February 1, 2013

  Actual Average Record
Temperature  
Mean Temperature 76 °F -  
Max Temperature 83 °F 80 °F 87 °F (2008)
Min Temperature 69 °F 66 °F 62 °F (2005)
Cooling Degree Days 11    
Growing Degree Days 26 (Base 50)    
Moisture  
Dew Point 71 °F    
Average Humidity 83    
Maximum Humidity 94    
Minimum Humidity 66    
Precipitation  
Precipitation 0.00 in 0.43 in - ()
Sea Level Pressure  
Sea Level Pressure 30.06 in    
Wind  
Wind Speed 3 mph ()    
Max Wind Speed 15 mph    
Max Gust Speed -    
Visibility 7.2 miles    
Events      
Averages and records for this station are not official NWS values.
T = Trace of Precipitation, MM = Missing Value Source: Averaged Metar Reports

Daily Weather History Graph

Daily Weather History Graph

Search for Another Location

Airport:

Trip Planner

Search our weather history database for the weather conditions in past years. The results will help you decide how hot, cold, wet, or windy it might be!

Date:

Astronomy

Feb. 01, 2013 Rise Set
Actual Time 6:17 AM CST 5:45 PM CST
Civil Twilight 5:54 AM CST 6:07 PM CST
Nautical Twilight 5:28 AM CST 6:33 PM CST
Astronomical Twilight 5:03 AM CST 6:59 PM CST
Moon 10:44 PM CST (2/1) 9:51 AM CST (2/1)
Length of Visible Light 12h 12m
Length of Day
11h 28m
Waning Gibbous, 70% of the Moon is Illuminated
Feb 1
Waning Gibbous
Feb 3
Last Quarter
Feb 10
New
Feb 17
First Quarter
Feb 25
Full

Hourly Weather History & Observations

Time (CST) Temp. Heat Index Dew Point Humidity Pressure Visibility Wind Dir Wind Speed Gust Speed Precip Events Conditions
12:00 AM 72 °F - 70 °F 92% 30.08 in 6 mi Calm Calm - -   Haze
12:00 AM 71.6 °F - 69.8 °F 94% 30.06 in 6.2 mi Calm Calm - N/A   Scattered Clouds
5:00 AM 71.6 °F - 69.8 °F 94% 30.06 in 6.2 mi Calm Calm - N/A   Scattered Clouds
6:00 AM 71 °F - 69 °F 93% 30.06 in 12 mi Calm Calm - -   Haze
6:00 AM 71.6 °F - 69.8 °F 94% 30.06 in 6.2 mi Calm Calm - N/A   Mostly Cloudy
7:00 AM 69.8 °F - 68.0 °F 94% 30.06 in 6.2 mi NE 2.3 mph - N/A   Scattered Clouds
8:00 AM 71.6 °F - 68.0 °F 88% 30.09 in 6.2 mi South 2.3 mph - N/A   Scattered Clouds
9:00 AM 75 °F - 69 °F 75% 30.11 in 12 mi SW 3.5 mph - -   Haze
10:00 AM 78.8 °F - 69.8 °F 74% 30.09 in 6.2 mi WSW 4.6 mph - N/A   Scattered Clouds
11:00 AM 82.4 °F 86.3 °F 69.8 °F 66% 30.09 in 6.2 mi Calm Calm - N/A   Scattered Clouds
12:00 PM 82.4 °F 87.2 °F 71.6 °F 70% 30.06 in 6.2 mi North 4.6 mph - N/A   Scattered Clouds
1:00 PM 82.4 °F 87.2 °F 71.6 °F 70% 30.04 in 6.2 mi North 9.2 mph - N/A   Scattered Clouds
2:00 PM 84.2 °F 89.6 °F 71.6 °F 66% 30.04 in 6.2 mi ENE 10.4 mph - N/A   Scattered Clouds
3:00 PM 82 °F - 73 °F 67% 30.02 in 12 mi NNE 8.1 mph - -   Haze
4:00 PM 82.4 °F 88.2 °F 73.4 °F 74% 30.01 in 6.2 mi NE 10.4 mph - N/A   Scattered Clouds
5:00 PM 80.6 °F 85.4 °F 73.4 °F 79% 30.01 in 6.2 mi ENE 15.0 mph - N/A   Scattered Clouds
6:00 PM 78 °F - 72 °F 78% 30.04 in 9 mi NE 6.9 mph - -   Partly Cloudy
6:00 PM 78.8 °F - 73.4 °F 83% 30.04 in 6.2 mi NE 6.9 mph - N/A   Scattered Clouds
8:00 PM 77.0 °F - 75.2 °F 94% 30.06 in 6.2 mi NE 9.2 mph - N/A   Scattered Clouds
10:00 PM 73.4 °F - 71.6 °F 94% 30.06 in 6.2 mi SSE 3.5 mph - N/A   Partly Cloudy
11:00 PM 71.6 °F - 69.8 °F 94% 30.06 in 6.2 mi East 2.3 mph - N/A   Partly Cloudy